Location: Brno
(49.2000°N, 16.6330°E)
Time: 12:18:50
(UTC+01:00)

ISS - Visible Passes

Search period start: 10 December 2019 00:00
Search period end: 20 December 2019 00:00
Orbit: 411 x 421 km, 51.6° (Epoch: 10 December)

Date Brightness Start Highest point End Pass type
(mag) Time Alt. Az. Time Alt. Az. Time Alt. Az.
10 Dec -2.6 16:50:27 10° WNW 16:53:40 44° SSW 16:56:53 10° SE visible
11 Dec -0.7 17:39:36 10° WSW 17:41:29 14° SW 17:43:21 10° S visible
12 Dec -1.0 16:50:33 10° W 16:53:11 21° SW 16:55:48 10° SSE visible
